EW6013 Weather Reports


Display with metric or nautical units.
time (UTC)temp
F
wind
direction
speed
MPH
gust
MPH
rain 1hr
in
rain 24hr
in
rain mn
in
humidity
%
barometer
mb
20260506191016 63 0.0 0.0 0.05 0.06 0.06 89 1003.4
20260506190516 63 0.0 0.0 0.05 0.06 0.06 89 1003.3
20260506190016 63 0.0 0.0 0.05 0.05 0.05 88 1003.4
20260506185516 63 0.0 1.0 0.05 0.05 0.05 88 1003.5
20260506185016 63 229 0.0 1.0 0.05 0.05 0.05 87 1003.6
20260506184516 63 0.0 0.0 0.04 0.04 0.04 86 1003.6
20260506184016 64 0.0 0.0 0.04 0.04 0.04 85 1003.8
20260506183536 64 0.0 1.0 0.04 0.04 0.04 84 1003.8
20260506183016 65 172 0.0 2.0 0.03 0.03 0.03 83 1003.8
20260506182516 65 168 0.0 2.0 0.03 0.03 0.03 82 1004.0
20260506182016 66 0.0 2.0 0.02 0.02 0.02 81 1004.1
20260506181516 67 189 0.0 2.0 0.02 0.02 0.02 78 1004.1
20260506181016 68 203 0.0 3.0 0.01 0.01 0.01 75 1004.2
20260506180536 69 257 0.0 11.0 0.01 0.01 0.01 72 1004.2
20260506180036 69 244 1.0 15.0 0.00 0.00 0.00 69 1004.1
20260506175516 70 232 2.0 15.0 0.00 0.00 0.00 67 1004.0
20260506175016 70 242 0.0 5.0 0.00 0.00 0.00 64 1003.9
20260506174536 71 220 0.0 5.0 0.00 0.00 0.00 62 1003.9
20260506174016 71 246 0.0 1.0 0.00 0.00 0.00 61 1003.8
20260506173536 71 0.0 1.0 0.00 0.00 0.00 61 1003.9
20260506173016 71 243 0.0 19.0 0.00 0.00 0.00 60 1003.9
20260506172536 71 216 4.0 19.0 0.00 0.00 0.00 60 1003.9
20260506172015 72 0.0 14.0 0.00 0.00 0.00 60 1003.7
20260506171516 72 237 0.0 14.0 0.00 0.00 0.00 59 1003.7
20260506171015 72 212 0.0 2.0 0.00 0.00 0.00 59 1003.7
20260506170515 72 0.0 10.0 0.00 0.00 0.00 60 1003.8
20260506170016 72 244 0.0 10.0 0.00 0.00 0.00 60 1003.9
20260506165515 72 240 0.0 3.0 0.00 0.00 0.00 61 1004.0
20260506165016 72 169 0.0 10.0 0.00 0.00 0.00 62 1004.0
20260506164515 71 222 0.0 10.0 0.00 0.00 0.00 63 1004.1
20260506164015 71 196 0.0 5.0 0.00 0.00 0.00 62 1004.2
20260506163515 71 208 0.0 5.0 0.00 0.00 0.00 64 1004.2
20260506163015 71 0.0 9.0 0.00 0.00 0.00 64 1004.4
20260506162556 70 206 0.0 9.0 0.00 0.00 0.00 64 1004.5
20260506162015 70 178 0.0 2.0 0.00 0.00 0.00 65 1004.5
20260506161616 70 0.0 6.0 0.00 0.00 0.00 66 1004.6
20260506161015 70 221 0.0 6.0 0.00 0.00 0.00 65 1004.6
20260506160515 70 242 0.0 1.0 0.00 0.00 0.00 66 1004.7
20260506160036 70 0.0 0.0 0.00 0.00 0.00 67 1004.9
20260506155515 70 0.0 0.0 0.00 0.00 0.00 67 1005.0
20260506155015 69 0.0 2.0 0.00 0.00 0.00 68 1005.0
20260506154515 69 207 0.0 2.0 0.00 0.00 0.00 68 1005.2
20260506154015 69 240 0.0 2.0 0.00 0.00 0.00 69 1005.2
20260506153515 69 0.0 1.0 0.00 0.00 0.00 68 1005.3
20260506153015 69 186 0.0 1.0 0.00 0.00 0.00 69 1005.3
20260506152515 69 0.0 0.0 0.00 0.00 0.00 68 1005.5
20260506152035 69 0.0 0.0 0.00 0.00 0.00 68 1005.6
20260506151515 69 0.0 0.0 0.00 0.00 0.00 69 1005.6
20260506151015 69 0.0 8.0 0.00 0.00 0.00 69 1005.7
20260506150515 69 213 1.0 8.0 0.00 0.00 0.00 69 1005.8
20260506150035 69 230 0.0 5.0 0.00 0.00 0.00 69 1005.7
20260506145515 69 0.0 5.0 0.00 0.00 0.00 70 1005.6
20260506145015 68 210 0.0 9.0 0.00 0.00 0.00 71 1005.7
20260506144515 68 246 0.0 9.0 0.00 0.00 0.00 70 1005.8
20260506144015 68 248 0.0 2.0 0.00 0.00 0.00 70 1005.9
20260506143515 68 226 0.0 1.0 0.00 0.00 0.00 71 1005.8
20260506143035 68 0.0 0.0 0.00 0.00 0.00 71 1005.8
20260506142515 68 0.0 3.0 0.00 0.00 0.00 73 1005.7
20260506142015 68 247 0.0 9.0 0.00 0.00 0.00 72 1005.7
20260506141515 68 152 0.0 11.0 0.00 0.00 0.00 71 1005.6
20260506141015 68 235 1.0 11.0 0.00 0.00 0.00 72 1005.5
20260506140515 67 227 0.0 5.0 0.00 0.00 0.00 72 1005.4
20260506140035 67 315 0.0 1.0 0.00 0.00 0.00 73 1005.3
20260506135515 67 0.0 0.0 0.00 0.00 0.00 74 1005.5
20260506135015 66 0.0 0.0 0.00 0.00 0.00 75 1005.6
20260506134515 66 0.0 1.0 0.00 0.00 0.00 74 1005.5
20260506134015 66 179 0.0 1.0 0.00 0.00 0.00 75 1005.6
20260506133515 66 0.0 0.0 0.00 0.00 0.00 75 1005.7
20260506133035 66 0.0 0.0 0.00 0.00 0.00 75 1005.8
20260506132515 66 0.0 0.0 0.00 0.00 0.00 75 1005.9
20260506132015 65 0.0 0.0 0.00 0.00 0.00 75 1006.0
20260506131515 65 0.0 0.0 0.00 0.00 0.00 76 1006.2
20260506131015 65 0.0 0.0 0.00 0.00 0.00 77 1006.2
20260506130515 65 0.0 0.0 0.00 0.00 0.00 76 1006.2
20260506130055 65 0.0 0.0 0.00 0.00 0.00 76 1006.2
20260506125535 64 0.0 0.0 0.00 0.00 0.00 77 1006.2
20260506125015 64 0.0 0.0 0.00 0.00 0.00 77 1006.2
20260506124515 64 0.0 0.0 0.00 0.00 0.00 77 1006.3
20260506124015 64 0.0 0.0 0.00 0.00 0.00 77 1006.2
20260506123515 64 0.0 0.0 0.00 0.00 0.00 78 1006.1
20260506123015 63 0.0 0.0 0.00 0.00 0.00 79 1006.0
20260506122515 63 0.0 0.0 0.00 0.00 0.00 80 1006.0
20260506122035 62 0.0 0.0 0.00 0.00 0.00 80 1006.0
20260506121515 62 0.0 0.0 0.00 0.00 0.00 80 1006.2
20260506121015 62 0.0 0.0 0.00 0.00 0.00 80 1006.5
20260506120515 62 0.0 0.0 0.00 0.00 0.00 80 1006.4
20260506120015 62 0.0 0.0 0.00 0.00 0.00 81 1006.3
20260506115515 61 0.0 0.0 0.00 0.00 0.00 82 1006.3
20260506115015 61 0.0 0.0 0.00 0.00 0.00 82 1006.3
20260506114535 61 0.0 0.0 0.00 0.00 0.00 81 1006.5
20260506114015 61 0.0 0.0 0.00 0.00 0.00 81 1006.6
20260506113535 61 0.0 0.0 0.00 0.00 0.00 81 1006.6
20260506113015 61 0.0 0.0 0.00 0.00 0.00 81 1006.7
20260506112515 61 0.0 0.0 0.00 0.00 0.00 81 1006.6
20260506112015 61 0.0 0.0 0.00 0.00 0.00 81 1006.7
20260506111515 60 0.0 0.0 0.00 0.00 0.00 81 1006.8
20260506111015 60 0.0 0.0 0.00 0.00 0.00 82 1006.8
20260506110515 60 0.0 0.0 0.00 0.00 0.00 82 1006.7
20260506110015 60 0.0 0.0 0.00 0.00 0.00 83 1006.6
20260506105515 60 0.0 0.0 0.00 0.00 0.00 83 1006.5
20260506105035 59 0.0 0.0 0.00 0.00 0.00 83 1006.7
20260506104535 59 0.0 0.0 0.00 0.00 0.00 83 1006.7
20260506104017 59 0.0 0.0 0.00 0.00 0.00 83 1006.7
20260506103517 59 0.0 0.0 0.00 0.00 0.00 83 1006.7
20260506103017 59 0.0 0.0 0.00 0.00 0.00 83 1006.6
20260506102517 59 0.0 0.0 0.00 0.00 0.00 83 1006.5
20260506102017 59 0.0 0.0 0.00 0.00 0.00 83 1006.5
20260506101516 59 0.0 0.0 0.00 0.00 0.00 83 1006.5
20260506101017 59 0.0 0.0 0.00 0.00 0.00 83 1006.5
20260506100516 59 0.0 0.0 0.00 0.00 0.00 83 1006.6
20260506100036 59 0.0 0.0 0.00 0.00 0.00 83 1006.6
20260506095516 59 0.0 0.0 0.00 0.00 0.00 82 1006.6
20260506095017 59 0.0 0.0 0.00 0.00 0.00 82 1006.5
20260506094516 59 0.0 0.0 0.00 0.00 0.00 82 1006.5
20260506094017 59 0.0 0.0 0.00 0.00 0.00 82 1006.5
20260506093517 59 0.0 0.0 0.00 0.00 0.00 81 1006.4
20260506093016 59 0.0 0.0 0.00 0.00 0.00 81 1006.3
20260506092517 59 0.0 0.0 0.00 0.00 0.00 81 1006.3
20260506092016 59 0.0 0.0 0.00 0.00 0.00 81 1006.5
20260506091516 59 0.0 0.0 0.00 0.00 0.00 81 1006.5
20260506091037 59 0.0 0.0 0.00 0.00 0.00 81 1006.4
20260506090536 59 0.0 0.0 0.00 0.00 0.00 80 1006.4
20260506090017 59 0.0 0.0 0.00 0.00 0.00 80 1006.4
20260506085516 59 0.0 0.0 0.00 0.00 0.00 80 1006.4
20260506085016 60 0.0 0.0 0.00 0.00 0.00 80 1006.4
20260506084516 60 0.0 0.0 0.00 0.00 0.00 80 1006.4
20260506084057 60 0.0 0.0 0.00 0.00 0.00 80 1006.5
20260506083516 60 0.0 0.0 0.00 0.00 0.00 79 1006.5
20260506083017 60 0.0 0.0 0.00 0.00 0.00 79 1006.5
20260506082516 60 0.0 0.0 0.00 0.00 0.00 79 1006.5
20260506082016 60 0.0 0.0 0.00 0.00 0.00 79 1006.4
20260506081516 60 0.0 0.0 0.00 0.00 0.00 78 1006.4
20260506081037 60 0.0 0.0 0.00 0.00 0.00 78 1006.4
20260506080516 60 0.0 0.0 0.00 0.00 0.00 78 1006.3
20260506073516 60 0.0 0.0 0.00 0.00 0.00 77 1006.4
20260506073036 60 0.0 0.0 0.00 0.00 0.00 76 1006.4
20260506072516 60 0.0 0.0 0.00 0.00 0.00 76 1006.3
20260506072016 60 0.0 0.0 0.00 0.00 0.00 76 1006.3
20260506071516 60 0.0 0.0 0.00 0.00 0.00 76 1006.2
20260506071036 60 0.0 0.0 0.00 0.00 0.00 75 1006.2
20260506070516 61 0.0 0.0 0.00 0.00 0.00 74 1006.1
20260506062516 61 0.0 0.0 0.00 0.00 0.00 72 1006.1
20260506062016 61 0.0 0.0 0.00 0.00 0.00 72 1006.1
20260506061516 61 0.0 0.0 0.00 0.00 0.00 72 1006.1
20260506061016 61 0.0 0.0 0.00 0.00 0.00 72 1006.1
20260506060556 61 0.0 0.0 0.00 0.00 0.00 72 1006.0
20260506051016 62 0.0 0.0 0.00 0.00 0.00 70 1006.2
20260506050516 62 0.0 0.0 0.00 0.00 0.00 70 1006.4
20260506045016 62 0.0 0.0 0.00 0.00 0.00 69 1006.4
20260506044516 62 0.0 0.0 0.00 0.00 0.00 68 1006.4
20260506044016 62 0.0 0.0 0.00 0.00 0.00 68 1006.5
20260506043516 63 0.0 0.0 0.00 0.00 0.00 68 1006.5
20260506043016 63 0.0 0.0 0.00 0.00 0.00 68 1006.4
20260506042516 63 0.0 0.0 0.00 0.00 0.00 68 1006.4
20260506042036 63 0.0 1.0 0.00 0.00 0.00 67 1006.4
20260506041516 63 171 0.0 1.0 0.00 0.00 0.00 67 1006.3
20260506041016 63 203 0.0 1.0 0.00 0.00 0.00 67 1006.4
20260506040515 63 0.0 0.0 0.00 0.00 0.00 67 1006.4
20260506040016 63 0.0 0.0 0.00 0.00 0.00 67 1006.4
20260506035515 63 0.0 2.0 0.00 0.00 0.00 66 1006.4
20260506035035 63 160 0.0 4.0 0.00 0.00 0.00 66 1006.4
20260506034515 63 147 0.0 4.0 0.00 0.00 0.00 66 1006.3
20260506034016 64 120 0.0 1.0 0.00 0.00 0.00 66 1006.3
20260506033536 64 0.0 0.0 0.00 0.00 0.00 65 1006.4
20260506033015 64 0.0 2.0 0.00 0.00 0.00 65 1006.3
20260506032535 64 213 0.0 2.0 0.00 0.00 0.00 64 1006.3
20260506032015 64 235 0.0 3.0 0.00 0.00 0.00 64 1006.3
20260506031515 64 233 0.0 7.0 0.00 0.00 0.00 64 1006.3
20260506031015 65 185 0.0 7.0 0.00 0.00 0.00 64 1006.3
20260506030535 65 201 0.0 4.0 0.00 0.00 0.00 64 1006.2
20260506030015 65 223 0.0 4.0 0.00 0.00 0.00 64 1006.3
20260506025515 65 0.0 0.0 0.00 0.00 0.00 63 1006.3
20260506025115 65 0.0 1.0 0.00 0.00 0.00 63 1006.3
20260506024515 65 225 0.0 1.0 0.00 0.00 0.00 63 1006.2
20260506024015 66 0.0 1.0 0.00 0.00 0.00 62 1006.2
20260506023535 66 196 0.0 1.0 0.00 0.00 0.00 62 1006.2
20260506023015 66 0.0 4.0 0.00 0.00 0.00 61 1006.2
20260506022515 66 143 0.0 4.0 0.00 0.00 0.00 61 1006.2
20260506022015 67 0.0 0.0 0.00 0.00 0.00 60 1006.2
20260506021515 67 0.0 2.0 0.00 0.00 0.00 60 1006.2
20260506021015 67 250 0.0 2.0 0.00 0.00 0.00 59 1006.2
20260506020535 68 0.0 0.0 0.00 0.00 0.00 59 1006.3
20260506020015 68 0.0 0.0 0.00 0.00 0.00 58 1006.2
20260506015515 68 0.0 0.0 0.00 0.00 0.00 57 1006.1
20260506015015 68 0.0 1.0 0.00 0.00 0.00 57 1006.1
20260506014515 69 202 0.0 1.0 0.00 0.00 0.00 57 1006.1
20260506014015 69 0.0 0.0 0.00 0.00 0.00 56 1006.1
20260506013515 69 0.0 0.0 0.00 0.00 0.00 55 1006.0
20260506013015 69 0.0 0.0 0.00 0.00 0.00 55 1006.0
20260506012515 70 196 0.0 1.0 0.00 0.00 0.00 55 1006.0
20260506012015 70 198 0.0 1.0 0.00 0.00 0.00 54 1005.9
20260506011515 70 0.0 0.0 0.00 0.00 0.00 53 1005.9
20260506011035 71 0.0 0.0 0.00 0.00 0.00 53 1005.8
20260506010535 71 0.0 0.0 0.00 0.00 0.00 52 1005.9
20260506010015 71 0.0 0.0 0.00 0.00 0.00 52 1005.9
20260506005515 71 0.0 4.0 0.00 0.00 0.00 51 1005.5
20260506005015 71 249 0.0 8.0 0.00 0.00 0.00 51 1005.4
20260506004515 71 221 1.0 8.0 0.00 0.00 0.00 51 1005.3
20260506004115 72 204 0.0 4.0 0.00 0.00 0.00 51 1005.2
20260506003515 72 0.0 0.0 0.00 0.00 0.00 50 1005.0
20260506003035 72 0.0 6.0 0.00 0.00 0.00 51 1004.8
20260506002515 72 206 0.0 6.0 0.00 0.00 0.00 51 1004.7
20260506002015 72 0.0 4.0 0.00 0.00 0.00 51 1004.5
20260506001515 72 196 0.0 4.0 0.00 0.00 0.00 51 1004.3
20260506001015 72 211 0.0 4.0 0.00 0.00 0.00 51 1004.1
20260506000515 72 0.0 1.0 0.00 0.00 0.00 51 1004.1
20260506000015 72 144 0.0 3.0 0.00 0.00 0.00 50 1004.1
20260505235515 73 224 0.0 7.0 0.00 0.00 0.00 50 1004.1
20260505235015 73 205 1.0 7.0 0.00 0.00 0.00 50 1004.0
20260505234515 73 213 0.0 4.0 0.00 0.00 0.00 49 1003.9
20260505234015 74 220 0.0 4.0 0.00 0.00 0.00 49 1003.8
20260505233515 74 202 0.0 6.0 0.00 0.00 0.00 48 1003.7
20260505233015 74 211 0.0 12.0 0.00 0.00 0.00 48 1003.6
20260505232535 75 214 1.0 12.0 0.00 0.00 0.00 47 1003.6
20260505232015 75 83 0.0 2.0 0.00 0.00 0.00 47 1003.5
20260505231515 76 229 0.0 9.0 0.00 0.00 0.00 46 1003.4
20260505231015 76 202 0.0 9.0 0.00 0.00 0.00 45 1003.3
20260505230615 77 0.0 0.0 0.00 0.00 0.00 43 1003.3
20260505230015 77 0.0 1.0 0.00 0.00 0.00 42 1003.1
20260505225515 77 162 0.0 1.0 0.00 0.00 0.00 41 1003.1
20260505225015 78 175 0.0 1.0 0.00 0.00 0.00 41 1003.0
20260505224535 78 175 0.0 25.0 0.00 0.00 0.00 41 1003.0
20260505224035 78 233 5.0 25.0 0.00 0.00 0.00 40 1002.9
20260505223535 79 189 0.0 13.0 0.00 0.00 0.00 40 1002.8
20260505223015 79 232 3.0 13.0 0.00 0.00 0.00 38 1002.6
20260505222515 79 0.0 1.0 0.00 0.00 0.00 38 1002.6
20260505222015 79 209 0.0 5.0 0.00 0.00 0.00 38 1002.4
20260505221515 80 210 0.0 20.0 0.00 0.00 0.00 37 1002.3
20260505221015 80 213 7.0 20.0 0.00 0.00 0.00 37 1002.3
20260505220557 80 206 4.0 19.0 0.00 0.00 0.00 37 1002.1
20260505220017 80 221 2.0 20.0 0.00 0.00 0.00 36 1002.0
20260505215516 80 204 6.0 20.0 0.00 0.00 0.00 36 1002.1
20260505215016 81 216 0.0 11.0 0.00 0.00 0.00 36 1002.2
20260505214517 81 0.0 9.0 0.00 0.00 0.00 35 1002.2
20260505214017 81 143 0.0 19.0 0.00 0.00 0.00 35 1002.1
20260505213537 81 216 9.0 19.0 0.00 0.00 0.00 34 1002.0
20260505213016 81 205 3.0 21.0 0.00 0.00 0.00 35 1001.9
20260505212536 81 232 6.0 21.0 0.00 0.00 0.00 34 1001.9
20260505212016 81 214 3.0 23.0 0.00 0.00 0.00 34 1002.0
20260505211517 82 229 5.0 23.0 0.00 0.00 0.00 33 1001.9
20260505211017 82 219 4.0 22.0 0.00 0.00 0.00 32 1001.8
20260505210517 82 197 2.0 15.0 0.00 0.00 0.00 33 1001.8
20260505210036 82 215 2.0 20.0 0.00 0.00 0.00 32 1001.7
20260505205516 82 204 4.0 20.0 0.00 0.00 0.00 33 1001.6
20260505205016 82 218 6.0 20.0 0.00 0.00 0.00 32 1001.8
20260505204516 83 198 3.0 20.0 0.00 0.00 0.00 32 1001.9
20260505204016 82 201 0.0 14.0 0.00 0.00 0.00 33 1001.8
20260505203536 82 207 4.0 18.0 0.00 0.00 0.00 31 1001.8
20260505203017 82 214 6.0 23.0 0.00 0.00 0.00 30 1001.8
20260505202516 83 218 11.0 23.0 0.00 0.00 0.00 30 1001.9
20260505202016 83 206 4.0 27.0 0.00 0.00 0.00 31 1001.9
20260505201516 83 217 7.0 29.0 0.00 0.00 0.00 31 1001.9
20260505201016 83 222 9.0 29.0 0.00 0.00 0.00 31 1002.0
20260505200516 83 217 9.0 21.0 0.00 0.00 0.00 31 1002.1
20260505200016 83 211 7.0 21.0 0.00 0.00 0.00 32 1002.1
20260505195516 83 210 5.0 16.0 0.00 0.00 0.00 31 1001.9
20260505195016 83 212 3.0 13.0 0.00 0.00 0.00 33 1002.0
20260505194536 84 172 0.0 10.0 0.00 0.00 0.00 32 1002.1
20260505194016 84 0.0 9.0 0.00 0.00 0.00 32 1002.1
20260505193516 84 187 1.0 15.0 0.00 0.00 0.00 33 1002.1
20260505193016 84 239 2.0 15.0 0.00 0.00 0.00 32 1002.0
20260505192536 84 208 2.0 24.0 0.00 0.00 0.00 32 1002.1
20260505192016 84 223 3.0 24.0 0.00 0.00 0.00 33 1002.1
20260505191516 83 195 2.0 19.0 0.00 0.00 0.00 34 1002.2